TimeCST,TemperatureF,Dew PointF,Humidity,Sea Level PressureIn,VisibilityMPH,Wind Direction,Wind SpeedMPH,Gust SpeedMPH,PrecipitationIn,Events,Conditions,WindDirDegrees,DateUTC
12:15 AM,58.5,55.2,89,30.05,5.0,Calm,Calm,-,N/A,,Clear,0,2012-12-06 06:15:00
12:35 AM,58.8,55.9,90,30.05,5.0,Calm,Calm,-,N/A,,Clear,0,2012-12-06 06:35:00
12:55 AM,57.7,54.9,90,30.05,4.0,Calm,Calm,-,N/A,,Scattered Clouds,0,2012-12-06 06:55:00
1:15 AM,56.3,53.4,90,30.03,4.0,Calm,Calm,-,N/A,,Clear,0,2012-12-06 07:15:00
1:35 AM,55.6,52.9,91,30.03,4.0,Calm,Calm,-,N/A,,Clear,0,2012-12-06 07:35:00
1:55 AM,55.2,52.5,91,30.02,5.0,Calm,Calm,-,N/A,,Clear,0,2012-12-06 07:55:00
2:15 AM,54.5,51.8,91,30.02,4.0,Calm,Calm,-,N/A,,Clear,0,2012-12-06 08:15:00
2:35 AM,54.3,51.6,91,30.01,4.0,Calm,Calm,-,N/A,,Clear,0,2012-12-06 08:35:00
2:55 AM,54.1,51.4,91,30.01,5.0,Calm,Calm,-,N/A,,Mostly Cloudy,0,2012-12-06 08:55:00
3:15 AM,53.6,51.1,91,30.00,0.2,Calm,Calm,-,N/A,Rain,Light Rain,0,2012-12-06 09:15:00
3:35 AM,53.8,51.6,92,29.99,0.2,Calm,Calm,-,N/A,Rain,Light Rain,0,2012-12-06 09:35:00
3:55 AM,54.5,52.2,92,29.99,0.2,Calm,Calm,-,N/A,Rain,Light Rain,0,2012-12-06 09:55:00
4:15 AM,54.3,52.3,93,29.99,0.2,Calm,Calm,-,N/A,Rain,Light Rain,0,2012-12-06 10:15:00
4:35 AM,54.3,52.5,94,29.98,0.2,Calm,Calm,-,N/A,Rain,Light Rain,0,2012-12-06 10:35:00
4:55 AM,54.1,52.3,94,29.97,0.2,Calm,Calm,-,N/A,Rain,Rain,0,2012-12-06 10:55:00
5:15 AM,53.6,51.8,94,29.97,0.2,Calm,Calm,-,N/A,Rain,Light Rain,0,2012-12-06 11:15:00
5:35 AM,53.2,51.6,94,29.97,0.2,Calm,Calm,-,N/A,Rain,Light Rain,0,2012-12-06 11:35:00
5:55 AM,53.6,51.8,94,29.97,0.2,Calm,Calm,-,N/A,,Unknown,0,2012-12-06 11:55:00
6:15 AM,53.1,51.4,94,29.98,0.2,Calm,Calm,-,N/A,Rain,Rain,0,2012-12-06 12:15:00
6:35 AM,53.1,51.4,94,29.99,0.2,Calm,Calm,-,N/A,Rain,Light Rain,0,2012-12-06 12:35:00
6:55 AM,53.2,51.8,95,29.99,0.2,Calm,Calm,-,N/A,Rain,Light Rain,0,2012-12-06 12:55:00
7:15 AM,53.4,51.8,94,29.99,0.2,Calm,Calm,-,N/A,Rain,Heavy Rain,0,2012-12-06 13:15:00
7:35 AM,53.4,51.8,94,29.99,0.2,Calm,Calm,-,N/A,Rain,Light Rain,0,2012-12-06 13:35:00
7:55 AM,54.0,52.3,94,30.00,0.2,Calm,Calm,-,N/A,Rain,Light Rain,0,2012-12-06 13:55:00
8:15 AM,54.5,52.9,94,30.00,0.2,Calm,Calm,-,N/A,Rain,Light Rain,0,2012-12-06 14:15:00
8:35 AM,55.8,54.1,94,30.00,0.2,Calm,Calm,-,N/A,Rain,Light Rain,0,2012-12-06 14:35:00
8:55 AM,56.7,55.0,94,30.00,0.2,Calm,Calm,-,N/A,Rain,Rain,0,2012-12-06 14:55:00
9:15 AM,58.1,56.3,94,30.01,0.2,Calm,Calm,-,N/A,Rain,Rain,0,2012-12-06 15:15:00
9:35 AM,59.2,57.6,94,30.00,0.2,Calm,Calm,-,N/A,Rain,Heavy Rain,0,2012-12-06 15:35:00
9:55 AM,60.6,59.0,94,30.01,0.2,Calm,Calm,-,N/A,Rain,Rain,0,2012-12-06 15:55:00
10:15 AM,62.2,60.6,94,30.00,1.5,Calm,Calm,-,N/A,,Overcast,0,2012-12-06 16:15:00
10:35 AM,64.0,62.2,94,30.00,4.0,Calm,Calm,-,N/A,,Mostly Cloudy,0,2012-12-06 16:35:00
10:55 AM,65.8,64.0,94,29.99,7.0,Calm,Calm,-,N/A,,Clear,0,2012-12-06 16:55:00
11:15 AM,69.1,66.7,92,29.98,7.0,Calm,Calm,-,N/A,,Clear,0,2012-12-06 17:15:00
11:55 AM,76.3,62.1,61,29.96,7.0,SSW,4.6,-,N/A,,Clear,200,2012-12-06 17:55:00
12:15 PM,77.0,61.0,58,29.95,7.0,South,6.9,-,N/A,,Clear,170,2012-12-06 18:15:00
12:35 PM,78.1,62.1,58,29.94,7.0,SSW,6.9,-,N/A,,Clear,200,2012-12-06 18:35:00
12:55 PM,79.2,60.8,53,29.92,5.0,SSW,8.1,-,N/A,,Haze,200,2012-12-06 18:55:00
1:15 PM,79.3,61.0,53,29.90,7.0,South,3.5,-,N/A,,Clear,170,2012-12-06 19:15:00
1:35 PM,80.2,60.4,51,29.89,7.0,South,8.1,-,N/A,,Clear,180,2012-12-06 19:35:00
1:55 PM,80.8,61.0,51,29.88,7.0,SSW,3.5,-,N/A,,Clear,200,2012-12-06 19:55:00
2:15 PM,80.6,61.2,51,29.87,7.0,South,8.1,-,N/A,,Clear,190,2012-12-06 20:15:00
2:35 PM,81.1,60.1,49,29.87,7.0,SE,5.8,-,N/A,,Clear,130,2012-12-06 20:35:00
2:55 PM,81.3,59.7,48,29.86,7.0,SSE,8.1,-,N/A,,Clear,150,2012-12-06 20:55:00
3:15 PM,81.9,60.8,49,29.85,7.0,SSE,9.2,-,N/A,,Clear,150,2012-12-06 21:15:00
3:35 PM,81.7,59.9,47,29.85,7.0,SE,5.8,-,N/A,,Clear,140,2012-12-06 21:35:00
3:55 PM,81.7,58.6,45,29.84,7.0,SSE,8.1,-,N/A,,Clear,150,2012-12-06 21:55:00
4:15 PM,81.5,59.9,48,29.84,7.0,SE,8.1,-,N/A,,Clear,130,2012-12-06 22:15:00
4:35 PM,81.0,59.9,49,29.84,7.0,SSE,8.1,-,N/A,,Clear,150,2012-12-06 22:35:00
4:55 PM,80.6,59.9,49,29.84,7.0,SE,9.2,-,N/A,,Clear,130,2012-12-06 22:55:00
5:15 PM,79.3,60.8,53,29.84,7.0,SE,8.1,-,N/A,,Clear,130,2012-12-06 23:15:00
5:35 PM,77.7,60.8,56,29.84,10.0,SE,5.8,-,N/A,,Clear,140,2012-12-06 23:35:00
5:55 PM,75.2,60.4,60,29.84,10.0,SE,5.8,-,N/A,,Clear,140,2012-12-06 23:55:00
6:15 PM,73.4,60.8,65,29.84,10.0,SE,4.6,-,N/A,,Clear,130,2012-12-07 00:15:00
6:35 PM,73.2,60.1,63,29.85,7.0,SE,4.6,-,N/A,,Clear,130,2012-12-07 00:35:00
6:55 PM,71.4,60.6,69,29.85,7.0,SE,4.6,-,N/A,,Clear,130,2012-12-07 00:55:00
7:15 PM,70.7,60.6,70,29.86,7.0,East,4.6,-,N/A,,Clear,100,2012-12-07 01:15:00
7:35 PM,69.4,60.3,73,29.86,7.0,ESE,5.8,-,N/A,,Clear,110,2012-12-07 01:35:00
7:55 PM,68.2,60.3,76,29.86,7.0,SE,6.9,-,N/A,,Clear,140,2012-12-07 01:55:00
8:35 PM,69.1,61.7,77,29.87,7.0,SSE,5.8,-,N/A,,Clear,150,2012-12-07 02:35:00
8:55 PM,68.2,61.5,79,29.87,7.0,SE,5.8,-,N/A,,Clear,140,2012-12-07 02:55:00
9:15 PM,66.4,61.0,83,29.87,7.0,SE,5.8,-,N/A,,Clear,140,2012-12-07 03:15:00
9:35 PM,66.4,61.7,85,29.88,7.0,SE,5.8,-,N/A,,Clear,140,2012-12-07 03:35:00
9:55 PM,66.4,61.9,85,29.88,7.0,SSE,4.6,-,N/A,,Clear,150,2012-12-07 03:55:00
10:15 PM,65.7,61.7,87,29.87,7.0,SE,3.5,-,N/A,,Clear,140,2012-12-07 04:15:00
10:55 PM,65.8,62.6,89,29.87,7.0,SSE,4.6,-,N/A,,Clear,150,2012-12-07 04:55:00
11:15 PM,65.3,62.1,89,29.87,7.0,SE,4.6,-,N/A,,Clear,140,2012-12-07 05:15:00
11:55 PM,63.5,60.8,91,29.86,5.0,SE,3.5,-,N/A,,Clear,130,2012-12-07 05:55:00